2015-11-13 00:00:59 r, 20.62m,0000000001Hz,0000957555c,0000002.078s, 013.2C,00002191
2015-11-13 00:10:58 r, 20.65m,0000000000Hz,0000978820c,0000002.124s, 012.8C,00002191
2015-11-13 00:20:58 r, 20.64m,0000000001Hz,0000968729c,0000002.102s, 012.5C,00002191
2015-11-13 00:30:59 r, 20.64m,0000000000Hz,0000974809c,0000002.115s, 011.9C,00002191
2015-11-13 00:40:58 r, 20.65m,0000000000Hz,0000980475c,0000002.128s, 011.9C,00002191
2015-11-13 00:50:58 r, 20.64m,0000000001Hz,0000968420c,0000002.102s, 011.6C,00002191
2015-11-13 01:00:58 r, 20.62m,0000000000Hz,0000952030c,0000002.066s, 011.6C,00002191
2015-11-13 01:10:58 r, 20.59m,0000000001Hz,0000932909c,0000002.025s, 011.2C,00002191
2015-11-13 01:20:58 r, 20.58m,0000000001Hz,0000922580c,0000002.002s, 010.9C,00002191
2015-11-13 01:30:58 r, 20.58m,0000000001Hz,0000920812c,0000001.998s, 010.9C,00002191
2015-11-13 01:40:58 r, 20.59m,0000000000Hz,0000928222c,0000002.014s, 010.9C,00002191
2015-11-13 01:50:58 r, 20.59m,0000000001Hz,0000928455c,0000002.015s, 010.6C,00002191
2015-11-13 02:01:00 r, 20.60m,0000000000Hz,0000934855c,0000002.029s, 010.6C,00002191
2015-11-13 02:10:58 r, 20.60m,0000000000Hz,0000938040c,0000002.036s, 010.3C,00002191
2015-11-13 02:20:58 r, 20.61m,0000000001Hz,0000944745c,0000002.050s, 010.3C,00002191
2015-11-13 02:30:58 r, 20.63m,0000000001Hz,0000964784c,0000002.094s, 010.3C,00002191
2015-11-13 02:40:58 r, 20.66m,0000000000Hz,0000988863c,0000002.146s, 009.9C,00002191
2015-11-13 02:50:58 r, 20.67m,0000000001Hz,0001004891c,0000002.181s, 009.9C,00002191
2015-11-13 03:01:00 r, 20.66m,0000000000Hz,0000992530c,0000002.154s, 009.6C,00002191
2015-11-13 03:10:58 r, 20.65m,0000000000Hz,0000980197c,0000002.127s, 009.6C,00002191
2015-11-13 03:20:58 r, 20.63m,0000000000Hz,0000960065c,0000002.083s, 009.3C,00002191
2015-11-13 03:30:59 r, 20.62m,0000000000Hz,0000952437c,0000002.067s, 009.3C,00002191
2015-11-13 03:40:58 r, 20.62m,0000000000Hz,0000956444c,0000002.076s, 009.0C,00002191
2015-11-13 03:50:58 r, 20.64m,0000000000Hz,0000966816c,0000002.098s, 009.0C,00002191
2015-11-13 04:00:59 r, 20.64m,0000000000Hz,0000979628c,0000002.126s, 008.7C,00002191
2015-11-13 04:10:58 r, 20.64m,0000000000Hz,0000977327c,0000002.121s, 008.7C,00002191
2015-11-13 04:20:58 r, 20.62m,0000000001Hz,0000960534c,0000002.084s, 008.3C,00002191
2015-11-13 04:30:58 r, 20.60m,0000000000Hz,0000949295c,0000002.060s, 008.0C,00002191
2015-11-13 04:40:58 r, 20.60m,0000000000Hz,0000943694c,0000002.048s, 008.0C,00002191
2015-11-13 04:50:58 r, 20.58m,0000000000Hz,0000928951c,0000002.016s, 008.0C,00002191
2015-11-13 05:00:58 r, 20.57m,0000000000Hz,0000922038c,0000002.001s, 008.0C,00002191
2015-11-13 05:10:58 r, 20.56m,0000000001Hz,0000910536c,0000001.976s, 007.7C,00002191
2015-11-13 05:20:58 r, 20.55m,0000000000Hz,0000905312c,0000001.965s, 007.7C,00002191
2015-11-13 05:30:58 r, 20.55m,0000000001Hz,0000897027c,0000001.947s, 007.4C,00002191
2015-11-13 05:40:58 r, 20.53m,0000000000Hz,0000890692c,0000001.933s, 007.4C,00002191
2015-11-13 05:50:58 r, 20.51m,0000000000Hz,0000872779c,0000001.894s, 007.0C,00002191
2015-11-13 06:00:58 r, 20.44m,0000000001Hz,0000814164c,0000001.767s, 007.0C,00002191
2015-11-13 06:10:58 r, 20.18m,0000000001Hz,0000642299c,0000001.394s, 007.0C,00002191
2015-11-13 06:20:58 r, 19.46m,0000000002Hz,0000334861c,0000000.727s, 007.0C,00002191
2015-11-13 06:30:58 r, 18.23m,0000000004Hz,0000107392c,0000000.233s, 007.0C,00002191
2015-11-13 06:40:59 r, 16.69m,0000000017Hz,0000025885c,0000000.056s, 006.7C,00002191
2015-11-13 06:50:58 r, 14.95m,0000000088Hz,0000005234c,0000000.011s, 006.7C,00002191
2015-11-13 07:00:58 r, 13.05m,0000000509Hz,0000000000c,0000000.000s, 006.7C,00002191
2015-11-13 07:10:59 r, 11.07m,0000003153Hz,0000000000c,0000000.000s, 007.0C,00002191
2015-11-13 07:20:58 r, 09.26m,0000016652Hz,0000000000c,0000000.000s, 006.7C,00002191
2015-11-13 07:30:58 r, 07.91m,0000057894Hz,0000000000c,0000000.000s, 006.7C,00002191
2015-11-13 07:40:59 r, 06.99m,0000136125Hz,0000000000c,0000000.000s, 006.4C,00002191
2015-11-13 07:50:58 r, 06.33m,0000248370Hz,0000000000c,0000000.000s, 006.7C,00002191
2015-11-13 08:00:58 r, 00.00m,0000408622Hz,0000000000c,0000000.000s, 007.4C,00002191
2015-11-13 08:11:00 r, 00.00m,0000597526Hz,0000000000c,0000000.000s, 008.3C,00002191
2015-11-13 08:20:58 r, 00.00m,0000597347Hz,0000000000c,0000000.000s, 009.6C,00002191
2015-11-13 08:30:58 r, 00.00m,0000597386Hz,0000000000c,0000000.000s, 009.9C,00002191
2015-11-13 08:40:58 r, 00.00m,0000597261Hz,0000000000c,0000000.000s, 010.6C,00002191
2015-11-13 08:50:58 r, 00.00m,0000597114Hz,0000000000c,0000000.000s, 012.5C,00002191
2015-11-13 09:00:58 r, 00.00m,0000596982Hz,0000000000c,0000000.000s, 014.5C,00002191
2015-11-13 09:10:58 r, 00.00m,0000596793Hz,0000000000c,0000000.000s, 016.4C,00002191
2015-11-13 09:20:58 r, 00.00m,0000596775Hz,0000000000c,0000000.000s, 017.7C,00002191
2015-11-13 09:30:58 r, 00.00m,0000596641Hz,0000000000c,0000000.000s, 018.6C,00002191
2015-11-13 09:40:58 r, 00.00m,0000596564Hz,0000000000c,0000000.000s, 019.6C,00002191
2015-11-13 09:50:58 r, 00.00m,0000596503Hz,0000000000c,0000000.000s, 020.3C,00002191
2015-11-13 10:00:58 r, 00.00m,0000596327Hz,0000000000c,0000000.000s, 021.2C,00002191
2015-11-13 10:10:58 r, 00.00m,0000596378Hz,0000000000c,0000000.000s, 021.9C,00002191
2015-11-13 10:20:58 r, 00.00m,0000596334Hz,0000000000c,0000000.000s, 021.9C,00002191
2015-11-13 10:30:58 r, 00.00m,0000596287Hz,0000000000c,0000000.000s, 022.2C,00002191
2015-11-13 10:40:58 r, 00.00m,0000596220Hz,0000000000c,0000000.000s, 022.5C,00002191
2015-11-13 10:50:58 r, 00.00m,0000596162Hz,0000000000c,0000000.000s, 022.5C,00002191
2015-11-13 11:00:58 r, 00.00m,0000596261Hz,0000000000c,0000000.000s, 022.5C,00002191
2015-11-13 11:10:58 r, 00.00m,0000596192Hz,0000000000c,0000000.000s, 022.8C,00002191
2015-11-13 11:20:58 r, 00.00m,0000596112Hz,0000000000c,0000000.000s, 023.2C,00002191
2015-11-13 11:30:58 r, 00.00m,0000596109Hz,0000000000c,0000000.000s, 023.5C,00002191
2015-11-13 11:40:58 r, 00.00m,0000596126Hz,0000000000c,0000000.000s, 023.2C,00002191
2015-11-13 11:50:58 r, 00.00m,0000596073Hz,0000000000c,0000000.000s, 023.2C,00002191
2015-11-13 12:00:58 r, 00.00m,0000596113Hz,0000000000c,0000000.000s, 023.5C,00002191
2015-11-13 12:10:58 r, 00.00m,0000596063Hz,0000000000c,0000000.000s, 023.5C,00002191
2015-11-13 12:20:58 r, 00.00m,0000596363Hz,0000000000c,0000000.000s, 020.9C,00002191
2015-11-13 12:30:58 r, 00.00m,0000596597Hz,0000000000c,0000000.000s, 018.6C,00002191
2015-11-13 12:40:58 r, 00.00m,0000596690Hz,0000000000c,0000000.000s, 017.4C,00002191
2015-11-13 12:50:58 r, 00.00m,0000596809Hz,0000000000c,0000000.000s, 016.7C,00002191
2015-11-13 13:00:58 r, 00.00m,0000596759Hz,0000000000c,0000000.000s, 016.4C,00002191
2015-11-13 13:10:58 r, 00.00m,0000596886Hz,0000000000c,0000000.000s, 016.4C,00002191
2015-11-13 13:20:58 r, 00.00m,0000596743Hz,0000000000c,0000000.000s, 016.4C,00002191
2015-11-13 13:30:58 r, 00.00m,0000596783Hz,0000000000c,0000000.000s, 016.7C,00002191
2015-11-13 13:40:58 r, 00.00m,0000596787Hz,0000000000c,0000000.000s, 016.7C,00002191
2015-11-13 13:50:58 r, 00.00m,0000596725Hz,0000000000c,0000000.000s, 017.0C,00002191
2015-11-13 14:00:58 r, 00.00m,0000596780Hz,0000000000c,0000000.000s, 017.4C,00002191
2015-11-13 14:10:58 r, 00.00m,0000596804Hz,0000000000c,0000000.000s, 017.4C,00002191
2015-11-13 14:20:58 r, 00.00m,0000596798Hz,0000000000c,0000000.000s, 017.4C,00002191
2015-11-13 14:30:58 r, 00.00m,0000596798Hz,0000000000c,0000000.000s, 017.4C,00002191
2015-11-13 14:41:00 r, 00.00m,0000596770Hz,0000000000c,0000000.000s, 017.7C,00002191
2015-11-13 14:50:58 r, 00.00m,0000596750Hz,0000000000c,0000000.000s, 017.4C,00002191
2015-11-13 15:00:58 r, 00.00m,0000596590Hz,0000000000c,0000000.000s, 017.7C,00002191
2015-11-13 15:10:58 r, 00.00m,0000596577Hz,0000000000c,0000000.000s, 018.3C,00002191
2015-11-13 15:20:58 r, 00.00m,0000596618Hz,0000000000c,0000000.000s, 018.6C,00002191
2015-11-13 15:30:58 r, 00.00m,0000596609Hz,0000000000c,0000000.000s, 018.6C,00002191
2015-11-13 15:40:59 r, 00.00m,0000596634Hz,0000000000c,0000000.000s, 018.3C,00002191
2015-11-13 15:50:58 r, 00.00m,0000596653Hz,0000000000c,0000000.000s, 018.0C,00002191
2015-11-13 16:00:58 r, 00.00m,0000456319Hz,0000000000c,0000000.000s, 017.7C,00002191
2015-11-13 16:10:58 r, 00.00m,0000447121Hz,0000000000c,0000000.000s, 017.7C,00002191
2015-11-13 16:20:58 r, 06.07m,0000317047Hz,0000000000c,0000000.000s, 017.4C,00002191
2015-11-13 16:30:58 r, 06.28m,0000259291Hz,0000000000c,0000000.000s, 016.7C,00002191
2015-11-13 16:40:58 r, 07.00m,0000135039Hz,0000000000c,0000000.000s, 016.1C,00002191
2015-11-13 16:50:58 r, 07.99m,0000053912Hz,0000000000c,0000000.000s, 015.4C,00002191
2015-11-13 17:00:58 r, 09.24m,0000017066Hz,0000000000c,0000000.000s, 015.1C,00002191
2015-11-13 17:11:00 r, 11.00m,0000003378Hz,0000000000c,0000000.000s, 014.8C,00002191
2015-11-13 17:20:58 r, 12.85m,0000000613Hz,0000000000c,0000000.000s, 014.5C,00002191
2015-11-13 17:30:58 r, 14.92m,0000000091Hz,0000005098c,0000000.011s, 014.5C,00002191
2015-11-13 17:40:58 r, 16.89m,0000000014Hz,0000031347c,0000000.068s, 014.5C,00002191
2015-11-13 17:50:58 r, 18.07m,0000000005Hz,0000092996c,0000000.202s, 014.5C,00002191
2015-11-13 18:00:58 r, 19.31m,0000000002Hz,0000288885c,0000000.627s, 014.5C,00002191
2015-11-13 18:10:58 r, 19.75m,0000000001Hz,0000432158c,0000000.938s, 014.5C,00002191
2015-11-13 18:20:58 r, 20.31m,0000000000Hz,0000722696c,0000001.568s, 014.5C,00002191
2015-11-13 18:30:58 r, 20.07m,0000000000Hz,0000581676c,0000001.262s, 014.1C,00002191
2015-11-13 18:41:00 r, 19.91m,0000000000Hz,0000503052c,0000001.092s, 014.1C,00002191
2015-11-13 18:50:58 r, 20.03m,0000000001Hz,0000564489c,0000001.225s, 014.1C,00002191
2015-11-13 19:00:58 r, 19.88m,0000000001Hz,0000487536c,0000001.058s, 014.1C,00002191
2015-11-13 19:10:58 r, 19.93m,0000000001Hz,0000510184c,0000001.107s, 014.5C,00002191
2015-11-13 19:20:58 r, 19.54m,0000000001Hz,0000356162c,0000000.773s, 014.5C,00002191
2015-11-13 19:30:58 r, 19.57m,0000000002Hz,0000365584c,0000000.793s, 014.8C,00002191
2015-11-13 19:40:58 r, 19.48m,0000000002Hz,0000337908c,0000000.733s, 014.8C,00002191
2015-11-13 19:50:58 r, 19.36m,0000000002Hz,0000302352c,0000000.656s, 014.8C,00002191
2015-11-13 20:00:58 r, 19.18m,0000000002Hz,0000254417c,0000000.552s, 014.8C,00002191
2015-11-13 20:10:58 r, 19.75m,0000000001Hz,0000434121c,0000000.942s, 014.8C,00002191
2015-11-13 20:20:58 r, 20.06m,0000000001Hz,0000575148c,0000001.248s, 014.8C,00002191
2015-11-13 20:30:58 r, 20.09m,0000000000Hz,0000590344c,0000001.281s, 014.8C,00002191
2015-11-13 20:40:58 r, 20.03m,0000000001Hz,0000561555c,0000001.219s, 014.8C,00002191
2015-11-13 20:50:58 r, 19.79m,0000000001Hz,0000450180c,0000000.977s, 014.8C,00002191
2015-11-13 21:00:58 r, 19.74m,0000000001Hz,0000428145c,0000000.929s, 014.8C,00002191
2015-11-13 21:10:58 r, 19.64m,0000000001Hz,0000391076c,0000000.849s, 014.8C,00002191
2015-11-13 21:20:58 r, 19.68m,0000000001Hz,0000406039c,0000000.881s, 014.8C,00002191
2015-11-13 21:30:58 r, 19.65m,0000000001Hz,0000395414c,0000000.858s, 014.8C,00002191
2015-11-13 21:40:58 r, 19.60m,0000000001Hz,0000377345c,0000000.819s, 014.8C,00002191
2015-11-13 21:50:58 r, 19.46m,0000000001Hz,0000331106c,0000000.719s, 015.1C,00002191
2015-11-13 22:00:58 r, 19.29m,0000000002Hz,0000284166c,0000000.617s, 015.1C,00002191
2015-11-13 22:11:00 r, 19.48m,0000000001Hz,0000337907c,0000000.733s, 015.1C,00002191
2015-11-13 22:20:58 r, 19.36m,0000000001Hz,0000301500c,0000000.654s, 015.1C,00002191
2015-11-13 22:30:58 r, 19.54m,0000000001Hz,0000357956c,0000000.777s, 015.4C,00002191
2015-11-13 22:40:59 r, 19.58m,0000000001Hz,0000366628c,0000000.796s, 015.4C,00002191
2015-11-13 22:50:58 r, 19.70m,0000000001Hz,0000415564c,0000000.902s, 015.4C,00002191
2015-11-13 23:00:58 r, 19.91m,0000000001Hz,0000500954c,0000001.087s, 015.4C,00002191
2015-11-13 23:10:58 r, 19.78m,0000000001Hz,0000444647c,0000000.965s, 015.4C,00002191
2015-11-13 23:20:58 r, 20.07m,0000000001Hz,0000582911c,0000001.265s, 015.4C,00002191
2015-11-13 23:30:58 r, 19.95m,0000000000Hz,0000519397c,0000001.127s, 015.4C,00002191
2015-11-13 23:40:58 r, 20.16m,0000000001Hz,0000634722c,0000001.377s, 015.4C,00002191
2015-11-13 23:50:58 r, 19.99m,0000000001Hz,0000540379c,0000001.173s, 015.4C,00002191
